Regional Weather Roundup
Issued by NWS Little Rock, AR

Home | Current Version | Previous Version | Text Only | Print | Product List | Glossary Off
Versions: 1 2 3 4 5 6 7 8 9 10 11 12 13 14 15 16 17 18 19 20 21 22 23 24 25 26 27 28 29 30 31 32 33 34 35 36 37 38 39 40 41 42 43 44 45 46 47 48 49 50

000
ASUS44 KLZK 261405
RWRLZK

WEATHER ROUNDUP FOR ARKANSAS
NATIONAL WEATHER SERVICE LITTLE ROCK AR
900 AM CDT FRI MAY 26 2017

NOTE: "FAIR" INDICATES FEW OR NO CLOUDS BELOW 12,000 FEET WITH NO
SIGNIFICANT WEATHER AND/OR OBSTRUCTIONS TO VISIBILITY.

ARZ001-003-010-029-261500-
NORTHWEST ARKANSAS

CITY           SKY/WX    TMP DP  RH WIND       PRES   REMARKS
FAYETTEVILLE   MOSUNNY   72  63  73 S14       29.74R
FORT SMITH     MOSUNNY   77  62  59 VRB7      29.73R
HARRISON       PTSUNNY   69  61  75 SE9       29.79R
BENTONVILLE    PTSUNNY   73  61  64 S7        29.74R
ROGERS         PTSUNNY   72  63  73 SE5       29.76R
SILOAM SPGS    MOSUNNY   73  61  64 S16G24    29.72F
HIGHFILL       PTSUNNY   74  64  71 S13       29.74R
SPRINGDALE     PTSUNNY   73  63  68 S10       29.75R
$$

ARZ004-005-016-261500-
NORTH CENTRAL ARKANSAS

CITY           SKY/WX    TMP DP  RH WIND       PRES   REMARKS
BATESVILLE     CLOUDY    70  63  78 S12G20    29.83F
FLIPPIN        CLOUDY    70  59  68 SE6       29.76S
MTN HOME       MOSUNNY   69  62  78 S6        29.79R
$$

ARZ040-041-261500-
WEST CENTRAL ARKANSAS

CITY           SKY/WX    TMP DP  RH WIND       PRES   REMARKS
MENA           CLOUDY    70  68  94 SW7       29.81S
MOUNT IDA      CLOUDY    70  64  81 VRB6      29.79R
$$

ARZ009-017-025-026-028-261500-
NORTHEAST ARKANSAS

CITY           SKY/WX    TMP DP  RH WIND       PRES   REMARKS
JONESBORO      CLOUDY    76  63  64 S15G23    29.85R
NEWPORT        PTSUNNY   71  64  78 S23G30    29.82R
WALNUT RIDGE   MOSUNNY   73  63  68 CALM      29.84S
BLYTHEVILLE    SUNNY     75  60  59 SW17G25   29.89R
NW BLYTHEVILLE PTSUNNY   73  61  64 SW18G28   29.88R
$$

ARZ022-023-033-042-044-261500-
CENTRAL ARKANSAS

CITY           SKY/WX    TMP DP  RH WIND       PRES   REMARKS
LITTLE ROCK    CLOUDY    69  65  86 S15G26    29.85R
N LITTLE ROCK    N/A     69  64  84 S10G20    29.84R
JACKSONVILLE   CLOUDY    72  65  79 S13G20    29.85R
CONWAY           N/A     70  64  83 S15       29.82R
SEARCY         PTSUNNY   74  67  78 S14G21    29.86R
HOT SPRINGS    CLOUDY    70  66  87 SW9G21    29.84R
RUSSELLVILLE   CLOUDY    72  63  73 S9        29.79S
CLINTON        CLOUDY    70  64  83 SE9       29.82S
$$

ARZ036-261500-
EAST ARKANSAS

CITY           SKY/WX    TMP DP  RH WIND       PRES   REMARKS
WEST MEMPHIS   MOSUNNY   73  65  75 S16G25    29.88R
$$

ARZ050-053-066-070-073-261500-
SOUTHWEST ARKANSAS

CITY           SKY/WX    TMP DP  RH WIND       PRES   REMARKS
ARKADELPHIA    CLOUDY    70  66  87 S9        29.85R
CAMDEN         CLOUDY    72  63  73 S12       29.87R
TEXARKANA      CLOUDY    71  68  90 S12G18    29.84R
EL DORADO      CLOUDY    71  66  84 S13G22    29.88R
DE QUEEN       CLOUDY    70  66  87 E5        29.79S
$$

ARZ056-057-069-261500-
SOUTHEAST ARKANSAS

CITY           SKY/WX    TMP DP  RH WIND       PRES   REMARKS
PINE BLUFF     SUNNY     74  65  73 S15G28    29.86S
STUTTGART      SUNNY     73  57  56 S20       29.86S
MONTICELLO     PTSUNNY   73  65  75 S14G24    29.89S

$$





USA.gov is the U.S. government's official web portal to all federal, state and local government web resources and services.